Regional Weather Roundup
Issued by NWS Charleston, WV

Home | Current Version | Previous Version | Text Only | Print | Product List | Glossary Off
Versions: 1 2 3 4 5 6 7 8 9 10 11 12 13 14 15 16 17 18 19 20 21 22 23 24 25 26 27 28 29 30 31 32 33 34 35 36 37 38 39 40 41 42 43 44 45 46 47 48 49 50

000
ASUS41 KRLX 271610
RWRRLX
West Virginia Regional Weather Roundup
National Weather Service Charleston WV
1200 PM EDT MON JUL 27 2015

Note: "fair" indicates few or no clouds below 12,000 feet with no
significant weather and/or obstructions to visibility.

WVZ003-271700-
Northern Panhandle of West Virginia

CITY           SKY/WX    TMP DP  RH WIND       PRES   REMARKS
WHEELING       SUNNY     80  67  64 NE7       30.04S
$$

WVZ009-271700-
Northwest West Virginia

CITY           SKY/WX    TMP DP  RH WIND       PRES   REMARKS
PARKERSBURG    NOT AVBL
$$

WVZ006-271700-
Western West Virginia

CITY           SKY/WX    TMP DP  RH WIND       PRES   REMARKS
HUNTINGTON     LGT RAIN  79  73  82 CALM      30.03S
$$

WVZ015-271700-
West Central West Virginia

CITY           SKY/WX    TMP DP  RH WIND       PRES   REMARKS
CHARLESTON     LGT RAIN  75  71  87 SW3       30.05R FOG
$$

WVZ022-031-271700-
North Central West Virginia

CITY           SKY/WX    TMP DP  RH WIND       PRES   REMARKS
CLARKSBURG     PTSUNNY   84  70  62 CALM      30.03S
MORGANTOWN     PTSUNNY   84  66  54 VRB3      30.04S
$$

WVZ025-035-042-045-271700-
Southern West Virginia

CITY           SKY/WX    TMP DP  RH WIND       PRES   REMARKS
BECKLEY        CLOUDY    74  67  78 W6        30.13R
LOGAN            N/A     73  70  88 CALM      30.05S
BLUEFIELD      LGT RAIN  72  67  84 SW7       30.16R
LEWISBURG      LGT RAIN  73  68  84 SW3       30.12S
$$

WVZ047-271700-
Northern Mountains of West Virginia

CITY           SKY/WX    TMP DP  RH WIND       PRES   REMARKS
ELKINS         CLOUDY    80  66  62 VRB3      30.09S
$$

WVZ052-271700-
Eastern Panhandle of West Virginia

CITY           SKY/WX    TMP DP  RH WIND       PRES   REMARKS
MARTINSBURG    MOSUNNY   80  70  71 N5        30.03R
PETERSBURG     MOSUNNY  N/A N/A N/A CALM      30.03R
$$



USA.gov is the U.S. government's official web portal to all federal, state and local government web resources and services.